Torna al catalogo

COSMOS 1867 COOLANT

AttivoLEO
NORAD 43325·DEBRIS·🇷🇺 Russia

Lanciato Jul 10, 1987 da Baikonur Cosmodrome

Loading…

Prossimi Passaggi (prossime 24 ore)

TLE

In scadenzaSource: Space-Track

Epoca: Sep 11, 2026, 21:18 UTC

1 43325U 87060AS  26254.88770537  .00000207  00000-0  10716-3 0  9999
2 43325  65.0086 115.2651 0019260 276.9769  82.9126 14.35271286611004

Traccia COSMOS 1867 COOLANT in tempo reale con AllMySat

Download on the App Store